Regional Weather Roundup
Issued by NWS

Home | Current Version | Previous Version | Graphics & Text | Print | Product List | Glossary On
Versions: 1 2 3 4 5 6 7 8 9 10 11 12 13 14 15 16 17 18 19 20 21 22 23 24 25 26 27 28 29 30 31 32 33 34 35 36 37 38 39 40 41 42 43 44 45 46 47 48 49 50
000
ASUS43 KLSX 241659
RWRMO

WEATHER SUMMARY FOR MISSOURI
NATIONAL WEATHER SERVICE SPRINGFIELD MO
1200 PM CDT THU APR 24 2014

NOTE: "FAIR" INDICATES FEW OR NO CLOUDS BELOW 12,000 FEET WITH NO
       SIGNIFICANT WEATHER AND/OR OBSTRUCTIONS TO VISIBILITY.
       CURRENT SKY AND/OR WEATHER CONDITIONS ARE NOT AVAILABLE FOR
       CHILLICOTHE AND FARMINGTON.

MOZ001>031-035>038-043-044-053-054-241800-
...NORTHERN AND WESTERN MISSOURI...

CITY           SKY/WX    TMP DP  RH WIND       PRES   REMARKS
KANSAS CTY INT CLOUDY    59  56  89 S5        29.63S
KANSAS C DTWN  LGT RAIN  62  57  83 S6        29.61S
LEE`S SUMMIT   CLOUDY    59  55  87 S13G23    29.62F
ST JOSEPH      CLOUDY    59  55  87 CALM      29.65S
CHILLICOTHE      N/A     54  49  83 SE10      29.69F
KIRKSVILLE     RAIN      52  48  86 S7        29.76R FOG

$$
MOZ066>068-077>081-088>096-101>105-241800-
...SOUTHWEST MISSOURI...

CITY           SKY/WX    TMP DP  RH WIND       PRES   REMARKS
SPRINGFIELD    CLOUDY    69  54  58 S17       29.69R
JOPLIN         LGT RAIN  72  57  59 SW28G45   29.66F

$$
MOZ032>034-039>042-045>050-055>058-069>072-241800-
...CENTRAL MISSOURI...

CITY           SKY/WX    TMP DP  RH WIND       PRES   REMARKS
COLUMBIA       LGT RAIN  68  45  43 S7        29.73F
JEFFERSON CITY PTSUNNY   71  44  37 S12       29.72F
ROLLA          MOSUNNY   72  47  40 S18G24    29.74F
SEDALIA        LGT RAIN  59  53  80 E6        29.70F
OSAGE BEACH    CLOUDY    66  46  48 S6        29.72F

$$
MOZ051-052-059>065-241800-
...EAST CENTRAL MISSOURI...

CITY           SKY/WX    TMP DP  RH WIND       PRES   REMARKS
ST LOUIS INTL  PTSUNNY   70  40  33 SE17G24   29.81F
SPIRIT OF STL  PTSUNNY   71  40  32 SE9G24    29.79F
ST CHARLES     PTSUNNY   69  41  36 SE23      29.78F

$$
MOZ072>076-082>087-097>100-106>115-241800-
...SOUTH CENTRAL AND SOUTHEAST MISSOURI...

CITY           SKY/WX    TMP DP  RH WIND       PRES   REMARKS
CAPE GIRARDEAU PTSUNNY   75  43  31 S18       29.85F
FARMINGTON     MOSUNNY   73  43  33 S13G25    29.86S
POPLAR BLUFF   PTSUNNY   74  46  36 S13       29.85F
WEST PLAINS    CLOUDY    70  47  43 S15G22    29.83F

$$



USA.gov is the U.S. government's official web portal to all federal, state and local government web resources and services.